星链-3049 (STARLINK-3049 )

导读 | 星芒AI

STARLINK-3049 是 SpaceX Starlink 卫星互联网项目中的第 3049 颗卫星,属于低轨通信卫星群的一部分。该卫星旨在为全球用户提供高速互联网服务,特别是在网络基础设施薄弱的地区。它采用先进的推进和通信技术,支持高速数据传输和低延迟通信。STARLINK-3049 于近期由猎鹰 9 号火箭发射入轨,加入 Starlink 群体,进一步扩展其全球覆盖范围。该项目由数千颗卫星组成,致力于构建一个高效、可靠的全球宽带网络。

基本信息
目录编号:
49436
目录名称:
STARLINK-3049
国际标识:
2021-104AE
轨道中心:
EARTH
卫星名称:
星链-3049
卫星全名:
星链-3049 (STARLINK-3049 )
卫星状态:
在轨 (已飞行1447 天)
发射日期:
2021-11-13 UTC
国别 :
美国 (US)
星等 :
--
轨道信息
数据来源 国际轨道数据
星历时间: 2025-10-30T00:19:00+0800
1天前
查看轨道信息
半长轴: 6917.875km
偏心率: 0.000135
轨道倾角: 53.217°
近地点辐角 88.539°
升交点赤经 77.245°
平近点角 271.576°
近地点: 538.806km
远地点: 540.674km
周期: 95.437分钟
每日圈数: 15.088418
详细信息
固有亮度:
5
最大亮度:
2.5
卫星平台:
Starlink v1.5
覆盖范围:
全球
运营商:
太空探索技术公司
运营商所在国:
美国
制造商(研发单位):
太空探索技术公司
制造商所在国:
美国
使用方式:
暂无
卫星简介
星链(Starlink)计划是由太空探索技术公司(SpaceX)提出的一个巨型低轨卫星互联网星座项目,计划在2019年至2024年间在太空搭建由约1.2万颗卫星组成的“星链”网络,其中1584颗将部署在地球上空550千米处的近地轨道,并从2020年开始工作。该卫星仍在工作。
2D轨道图
3D轨道图
轨道高度分析图
轨道倾角分析图
轨道综合分析图
查看轨道综合分析图